FW5890 Weather Reports


time (UTC)temp
F
wind
direction
speed
knots
gust
knots
rain 1hr
in
rain 24hr
in
rain mn
in
humidity
%
barometer
mb
20260505235014 49 360 1.7 7.0 0.00 0.00 0.00 45 1011.2
20260505234601 49 321 2.6 8.7 0.00 0.00 0.00 45 1011.1
20260505234004 49 311 2.6 8.7 0.00 0.00 0.00 44 1011.1
20260505233525 49 313 1.7 4.3 0.00 0.00 0.00 45 1011.0
20260505233106 49 292 1.7 7.8 0.00 0.00 0.00 47 1011.0
20260505232542 49 311 3.5 7.8 0.00 0.00 0.00 47 1011.0
20260505232059 49 350 3.5 7.8 0.00 0.00 0.00 46 1011.1
20260505231516 49 297 3.5 7.8 0.00 0.00 0.00 45 1011.1
20260505231052 49 332 1.7 8.7 0.00 0.00 0.00 45 1011.2
20260505230502 49 298 1.7 7.0 0.00 0.00 0.00 46 1011.2
20260505230038 49 327 1.7 5.2 0.00 0.00 0.00 46 1011.2
20260505225543 50 270 0.9 7.0 0.00 0.00 0.00 47 1011.2
20260505225103 50 284 1.7 7.0 0.00 0.00 0.00 45 1011.2
20260505224545 50 328 2.6 7.8 0.00 0.00 0.00 45 1011.1
20260505224059 50 254 0.9 7.8 0.00 0.00 0.00 49 1011.1
20260505223512 49 228 1.7 12.2 0.00 0.00 0.00 47 1011.1
20260505223051 49 331 3.5 12.2 0.00 0.00 0.00 46 1011.0
20260505222518 49 322 0.9 8.7 0.00 0.00 0.00 47 1011.0
20260505222049 49 286 1.7 9.6 0.00 0.00 0.00 47 1010.9
20260505221550 49 22 4.3 9.6 0.00 0.00 0.00 45 1011.0
20260505221102 50 92 2.6 8.7 0.00 0.00 0.00 45 1011.0
20260505220512 50 292 1.7 9.6 0.00 0.00 0.00 46 1010.9
20260505220035 50 331 2.6 10.4 0.00 0.00 0.00 45 1010.9
20260505215534 50 317 3.5 10.4 0.00 0.00 0.00 46 1011.0
20260505215052 50 54 2.6 7.8 0.00 0.00 0.00 45 1011.0
20260505214515 51 334 2.6 10.4 0.00 0.00 0.00 43 1011.1
20260505214045 50 360 2.6 10.4 0.00 0.00 0.00 46 1011.1
20260505213605 50 337 1.7 7.8 0.00 0.00 0.00 45 1011.2
20260505213030 51 301 1.7 7.8 0.00 0.00 0.00 44 1011.2
20260505212559 51 275 2.6 8.7 0.00 0.00 0.00 46 1011.1
20260505212010 50 319 1.7 8.7 0.00 0.00 0.00 45 1011.1
20260505211609 50 273 1.7 7.8 0.00 0.00 0.00 46 1011.1
20260505211003 50 310 0.9 7.0 0.00 0.00 0.00 47 1011.2
20260505210523 49 275 1.7 8.7 0.00 0.00 0.00 47 1011.2
20260505210045 49 351 1.7 8.7 0.00 0.00 0.00 45 1011.2
20260505205521 49 327 2.6 8.7 0.00 0.00 0.00 45 1011.3
20260505205059 49 243 1.7 7.0 0.00 0.00 0.00 47 1011.2
20260505204537 49 299 0.9 7.0 0.00 0.00 0.00 47 1011.2
20260505204052 49 321 0.9 7.0 0.00 0.00 0.00 45 1011.2
20260505203502 49 329 3.5 8.7 0.00 0.00 0.00 45 1011.3
20260505203047 49 349 1.7 8.7 0.00 0.00 0.00 47 1011.3
20260505202607 49 308 2.6 8.7 0.00 0.00 0.00 46 1011.3
20260505202017 48 331 2.6 8.7 0.00 0.00 0.00 46 1011.4
20260505201542 49 336 2.6 7.8 0.00 0.00 0.00 46 1011.3
20260505201035 49 317 0.9 9.6 0.00 0.00 0.00 46 1011.4
20260505200555 49 333 3.5 9.6 0.00 0.00 0.00 47 1011.4
20260505200033 49 329 2.6 7.0 0.00 0.00 0.00 47 1011.4
20260505195548 50 302 2.6 7.0 0.00 0.00 0.00 47 1011.4
20260505195004 50 313 1.7 7.8 0.00 0.00 0.00 46 1011.4
20260505194543 50 111 0.9 7.8 0.00 0.00 0.00 51 1011.4
20260505194021 49 319 1.7 7.0 0.00 0.00 0.00 50 1011.4
20260505193601 48 24 3.5 7.8 0.00 0.00 0.00 48 1011.4
20260505193011 48 323 2.6 7.8 0.00 0.00 0.00 48 1011.4
20260505192534 49 331 2.6 7.8 0.00 0.00 0.00 47 1011.4
20260505192005 49 313 2.6 12.2 0.00 0.00 0.00 48 1011.4
20260505191532 49 324 3.5 12.2 0.00 0.00 0.00 46 1011.4
20260505191048 49 315 1.7 8.7 0.00 0.00 0.00 46 1011.3
20260505190518 49 343 4.3 9.6 0.00 0.00 0.00 46 1011.3
20260505190039 50 326 5.2 12.2 0.00 0.00 0.00 46 1011.4
20260505185558 49 355 4.3 12.2 0.00 0.00 0.00 47 1011.4
20260505185024 48 321 2.6 7.0 0.00 0.00 0.00 47 1011.4
20260505184555 48 325 2.6 7.0 0.00 0.00 0.00 47 1011.5
20260505184022 48 179 1.7 9.6 0.00 0.00 0.00 46 1011.4
20260505183540 49 317 2.6 9.6 0.00 0.00 0.00 45 1011.4
20260505183101 49 301 3.5 9.6 0.00 0.00 0.00 45 1011.4
20260505182539 49 321 4.3 8.7 0.00 0.00 0.00 46 1011.4
20260505182057 49 340 3.5 7.8 0.00 0.00 0.00 44 1011.4
20260505181509 50 24 1.7 7.8 0.00 0.00 0.00 46 1011.4
20260505181055 49 248 2.6 8.7 0.00 0.00 0.00 47 1011.4
20260505180506 49 340 2.6 7.8 0.00 0.00 0.00 46 1011.2
20260505180027 49 329 2.6 7.8 0.00 0.00 0.00 45 1011.3
20260505175502 50 327 2.6 9.6 0.00 0.00 0.00 44 1011.3
20260505175021 50 298 0.0 9.6 0.00 0.00 0.00 45 1011.4
20260505174600 50 299 2.6 7.0 0.00 0.00 0.00 45 1011.4
20260505174502 50 66 1.7 7.8 0.00 0.00 0.00 49 1011.3
20260505174019 48 130 2.6 8.7 0.00 0.00 0.00 46 1011.3
20260505173602 48 326 3.5 8.7 0.00 0.00 0.00 44 1011.3
20260505173019 48 317 2.6 8.7 0.00 0.00 0.00 45 1011.5
20260505172538 48 256 1.7 7.0 0.00 0.00 0.00 47 1011.4
20260505172012 47 319 1.7 7.0 0.00 0.00 0.00 46 1011.5
20260505171543 48 331 1.7 9.6 0.00 0.00 0.00 45 1011.5
20260505171105 48 334 2.6 9.6 0.00 0.00 0.00 45 1011.5
20260505170526 48 301 1.7 4.3 0.00 0.00 0.00 47 1011.5
20260505170106 48 225 0.9 3.5 0.00 0.00 0.00 47 1011.5
20260505165535 47 120 0.9 3.5 0.00 0.00 0.00 48 1011.5
20260505165008 47 266 0.9 7.8 0.00 0.00 0.00 46 1011.5
20260505164537 47 296 1.7 8.7 0.00 0.00 0.00 45 1011.5
20260505164030 48 329 2.6 8.7 0.00 0.00 0.00 46 1011.5
20260505163513 47 115 1.7 8.7 0.00 0.00 0.00 47 1011.4
20260505163033 47 333 2.6 7.8 0.00 0.00 0.00 45 1011.5
20260505162553 47 336 0.0 6.1 0.00 0.00 0.00 50 1011.5
20260505162031 47 133 1.7 7.8 0.00 0.00 0.00 45 1011.5
20260505161513 48 311 0.9 5.2 0.00 0.00 0.00 45 1011.6
20260505161037 48 308 0.9 4.3 0.00 0.00 0.00 44 1011.5
20260505160531 48 219 0.9 5.2 0.00 0.00 0.00 45 1011.5
20260505153106 48 325 0.9 5.2 0.00 0.00 0.00 49 1011.3
20260505152521 47 128 1.7 7.0 0.00 0.00 0.00 48 1011.4
20260505152001 47 148 1.7 7.0 0.00 0.00 0.00 48 1011.4
20260505151527 47 298 0.9 7.0 0.00 0.00 0.00 50 1011.3
20260505151010 46 109 1.7 8.7 0.00 0.00 0.00 51 1011.3
20260505150549 46 344 1.7 8.7 0.00 0.00 0.00 52 1011.2
20260505140507 45 284 0.9 3.5 0.00 0.00 0.00 51 1010.8
20260505125007 42 225 0.9 6.1 0.00 0.00 0.00 55 1010.3
20260505124556 42 254 0.9 6.1 0.00 0.00 0.00 54 1010.3
20260505124035 42 142 0.9 5.2 0.00 0.00 0.00 56 1010.2
20260505123520 41 142 0.9 5.2 0.00 0.00 0.00 56 1010.0
20260505123004 41 360 0.0 3.5 0.00 0.00 0.00 59 1009.9
20260505122526 41 194 0.0 3.5 0.00 0.00 0.00 59 1009.8
20260505122103 40 360 0.9 2.6 0.00 0.00 0.00 61 1009.8
20260505121544 40 360 0.9 2.6 0.00 0.00 0.00 62 1009.7
20260505121012 39 360 0.0 3.5 0.00 0.00 0.00 65 1009.6
20260505120532 39 360 0.9 3.5 0.00 0.00 0.00 67 1009.4
20260505120110 38 360 0.0 2.6 0.00 0.00 0.00 68 1009.4
20260505115525 38 213 0.0 2.6 0.00 0.00 0.00 68 1009.4
20260505115107 38 360 0.0 1.7 0.00 0.00 0.00 69 1009.3
20260505114516 37 360 0.0 1.7 0.00 0.00 0.00 70 1009.2
20260505114058 37 360 0.0 1.7 0.00 0.00 0.00 71 1009.1
20260505113529 37 360 0.0 1.7 0.00 0.00 0.00 71 1009.0
20260505113004 37 360 0.0 1.7 0.00 0.00 0.00 72 1008.9
20260505112548 37 360 0.0 1.7 0.00 0.00 0.00 73 1008.8
20260505112110 37 360 0.0 1.7 0.00 0.00 0.00 73 1008.7
20260505111524 37 360 0.0 1.7 0.00 0.00 0.00 74 1008.6
20260505111100 37 232 0.0 1.7 0.00 0.00 0.00 74 1008.6
20260505110543 37 360 0.0 1.7 0.00 0.00 0.00 73 1008.5
20260505102020 38 360 0.0 0.0 0.00 0.00 0.00 71 1008.3
20260505101556 38 271 0.0 0.9 0.00 0.00 0.00 71 1008.2
20260505101012 38 360 0.0 0.9 0.00 0.00 0.00 71 1008.2
20260505100532 38 360 0.0 2.6 0.00 0.00 0.00 70 1008.2
20260505100004 38 360 0.0 2.6 0.00 0.00 0.00 70 1008.2
20260505095548 38 360 0.0 0.9 0.00 0.00 0.00 70 1008.2
20260505095016 39 360 0.0 3.5 0.00 0.00 0.00 69 1008.2
20260505094542 39 360 0.0 3.5 0.00 0.00 0.00 69 1008.1
20260505094101 39 360 0.0 1.7 0.00 0.00 0.00 68 1008.1
20260505093512 39 209 0.0 2.6 0.00 0.00 0.00 68 1008.0
20260505093056 39 360 0.0 2.6 0.00 0.00 0.00 67 1008.0
20260505092530 39 360 0.0 3.5 0.00 0.00 0.00 67 1007.9
20260505092110 39 360 0.0 3.5 0.00 0.00 0.00 67 1007.9
20260505091553 39 57 0.0 3.5 0.00 0.00 0.00 66 1007.9
20260505091103 40 360 0.9 3.5 0.00 0.00 0.00 66 1007.7
20260505090538 40 360 0.0 7.0 0.00 0.00 0.00 66 1007.7
20260505090059 40 360 1.7 7.0 0.00 0.00 0.00 66 1007.7
20260505085532 39 360 0.9 4.3 0.00 0.00 0.00 66 1007.6
20260505085052 39 277 0.9 4.3 0.00 0.00 0.00 67 1007.6
20260505084528 40 318 0.0 2.6 0.00 0.00 0.00 67 1007.5
20260505084045 40 298 0.0 2.6 0.00 0.00 0.00 67 1007.4
20260505083522 40 284 0.0 2.6 0.00 0.00 0.00 68 1007.3
20260505083109 40 284 0.0 2.6 0.00 0.00 0.00 66 1007.3
20260505082530 40 296 0.0 2.6 0.00 0.00 0.00 66 1007.1
20260505082010 40 360 0.0 3.5 0.00 0.00 0.00 66 1007.2
20260505081546 40 360 0.0 3.5 0.00 0.00 0.00 65 1007.1
20260505081024 40 360 0.0 3.5 0.00 0.00 0.00 65 1007.1
20260505080540 40 317 0.0 1.7 0.00 0.00 0.00 66 1007.1
20260505080018 40 309 0.0 3.5 0.00 0.00 0.00 66 1007.0
20260505075503 40 360 0.0 2.6 0.00 0.00 0.00 65 1007.0
20260505075026 40 360 0.0 4.3 0.00 0.00 0.00 66 1006.9
20260505074544 40 360 0.0 4.3 0.00 0.00 0.00 65 1006.8
20260505074018 40 283 0.9 2.6 0.00 0.00 0.00 66 1006.9
20260505073559 40 236 0.0 1.7 0.00 0.00 0.00 66 1006.9
20260505073032 40 360 0.0 1.7 0.00 0.00 0.00 65 1006.8
20260505072552 40 236 0.0 1.7 0.00 0.00 0.00 66 1006.8
20260505072015 40 243 0.0 1.7 0.00 0.00 0.00 65 1006.8
20260505071544 41 242 0.0 0.9 0.00 0.00 0.00 66 1006.9
20260505071104 41 360 0.0 1.7 0.00 0.00 0.00 65 1006.9
20260505070548 41 360 0.0 1.7 0.00 0.00 0.00 65 1006.9
20260505065516 41 242 0.0 1.7 0.00 0.00 0.00 64 1007.0
20260505065035 41 242 0.0 1.7 0.00 0.00 0.00 64 1007.0
20260505064515 41 360 0.0 0.9 0.00 0.00 0.00 63 1007.1
20260505064054 42 242 0.0 2.6 0.00 0.00 0.00 63 1006.9
20260505063535 42 242 0.0 2.6 0.00 0.00 0.00 63 1006.8
20260505063004 42 240 0.0 4.3 0.00 0.00 0.00 63 1007.0
20260505062526 42 360 0.0 4.3 0.00 0.00 0.00 62 1006.9
20260505062046 42 98 0.0 1.7 0.00 0.00 0.00 62 1006.9
20260505061607 42 251 0.0 1.7 0.00 0.00 0.00 62 1007.0
20260505061021 42 251 0.0 1.7 0.00 0.00 0.00 62 1006.9
20260505060613 43 244 0.0 1.7 0.00 0.00 0.00 61 1006.9
20260505060023 43 257 0.0 1.7 0.00 0.00 0.00 61 1007.0
20260505055507 43 230 0.0 1.7 0.00 0.00 0.00 61 1006.9
20260505055053 43 181 0.0 3.5 0.00 0.00 0.00 61 1006.8
20260505054525 43 53 0.0 3.5 0.00 0.00 0.00 61 1006.8
20260505054039 43 315 0.9 3.5 0.00 0.00 0.00 61 1006.8
20260505053516 44 360 0.0 3.5 0.00 0.00 0.00 61 1006.8
20260505053034 44 360 1.7 3.5 0.00 0.00 0.00 61 1006.8
20260505052505 44 360 0.0 3.5 0.00 0.00 0.00 61 1006.7
20260505052037 44 360 0.0 3.5 0.00 0.00 0.00 61 1006.6
20260505051604 44 323 0.9 2.6 0.00 0.00 0.00 61 1006.6
20260505051022 44 360 0.0 3.5 0.00 0.00 0.00 60 1006.6
20260505050542 44 327 0.0 3.5 0.00 0.00 0.00 60 1006.5
20260505041533 44 327 1.7 3.5 0.00 0.00 0.00 57 1006.4
20260505041017 44 330 0.0 1.7 0.00 0.00 0.00 56 1006.4
20260505040503 45 333 0.0 2.6 0.00 0.00 0.00 56 1006.4
20260505040058 45 332 0.9 4.3 0.00 0.00 0.00 56 1006.5
20260505035501 45 338 0.9 4.3 0.00 0.00 0.00 56 1006.4
20260505035048 45 360 0.9 2.6 0.00 0.00 0.00 55 1006.3
20260505034507 45 360 0.0 2.6 0.00 0.00 0.00 55 1006.3
20260505034036 45 360 0.9 3.5 0.00 0.00 0.00 54 1006.3
20260505033627 45 360 0.9 3.5 0.00 0.00 0.00 53 1006.3
20260505033102 45 360 0.9 4.3 0.00 0.00 0.00 54 1006.3
20260505032516 45 360 0.0 2.6 0.00 0.00 0.00 54 1006.3
20260505032056 46 360 0.0 3.5 0.00 0.00 0.00 54 1006.3
20260505031533 46 360 0.9 3.5 0.00 0.00 0.00 54 1006.3
20260505031011 46 360 0.0 3.5 0.00 0.00 0.00 54 1006.3
20260505030605 46 360 0.0 3.5 0.00 0.00 0.00 55 1006.3
20260505030047 46 360 0.0 3.5 0.00 0.00 0.00 54 1006.3
20260505025609 46 360 0.9 3.5 0.00 0.00 0.00 53 1006.2
20260505025048 46 360 0.9 3.5 0.00 0.00 0.00 52 1006.2
20260505024517 46 360 0.9 3.5 0.00 0.00 0.00 53 1006.1
20260505024100 46 360 0.9 2.6 0.00 0.00 0.00 53 1006.1
20260505023538 46 360 0.0 2.6 0.00 0.00 0.00 53 1006.0
20260505023058 46 360 0.0 2.6 0.00 0.00 0.00 52 1005.9
20260505022545 47 360 0.0 1.7 0.00 0.00 0.00 52 1005.9
20260505022032 47 360 0.0 3.5 0.00 0.00 0.00 52 1005.8
20260505021524 47 360 0.9 3.5 0.00 0.00 0.00 51 1005.8
20260505021051 47 360 0.9 5.2 0.00 0.00 0.00 51 1005.7
20260505020526 47 360 0.0 5.2 0.00 0.00 0.00 51 1005.6
20260505020110 47 360 0.0 2.6 0.00 0.00 0.00 52 1005.6
20260505015544 47 360 0.0 2.6 0.00 0.00 0.00 51 1005.5
20260505015034 47 360 0.0 3.5 0.00 0.00 0.00 51 1005.4
20260505014520 48 360 0.9 5.2 0.00 0.00 0.00 49 1005.4
20260505014008 48 360 1.7 5.2 0.00 0.00 0.00 49 1005.4
20260505013536 48 360 0.9 4.3 0.00 0.00 0.00 49 1005.3
20260505013017 48 360 1.7 7.0 0.00 0.00 0.00 50 1005.2
20260505012600 49 360 0.0 7.0 0.00 0.00 0.00 50 1005.1
20260505012038 49 360 0.9 7.8 0.00 0.00 0.00 50 1005.0
20260505011515 49 360 1.7 7.8 0.00 0.00 0.00 48 1004.8
20260505011101 49 360 0.9 7.0 0.00 0.00 0.00 50 1004.8
20260505010521 50 360 1.7 8.7 0.00 0.00 0.00 49 1004.6
20260505010057 50 360 3.5 8.7 0.00 0.00 0.00 48 1004.5
20260505005601 50 360 1.7 8.7 0.00 0.00 0.00 48 1004.3
20260505005033 51 360 1.7 7.0 0.00 0.00 0.00 48 1004.2
20260505004612 51 46 0.9 3.5 0.00 0.00 0.00 47 1004.2
20260505004002 51 76 0.9 3.5 0.00 0.00 0.00 47 1004.1
20260505003527 52 154 1.7 7.0 0.00 0.00 0.00 47 1003.9
20260505003015 52 338 2.6 7.0 0.00 0.00 0.00 46 1003.9
20260505002606 52 301 1.7 12.2 0.00 0.00 0.00 45 1003.7
20260505002013 52 326 2.6 12.2 0.00 0.00 0.00 46 1003.8
20260505001549 52 323 2.6 9.6 0.00 0.00 0.00 47 1003.7
20260505001012 52 295 0.9 9.6 0.00 0.00 0.00 46 1003.6
20260505000551 52 287 2.6 9.6 0.00 0.00 0.00 46 1003.6
20260505000003 52 80 1.7 7.0 0.00 0.00 0.00 47 1003.5